Location: Breux
(46.3269°N, 3.2993°E)
Time: 15:53:25
(UTC+00:00)

Cosmos 407 Rocket - Pass Details

Date: 09 April 2020
Orbit: 743 x 787 km, 74.0° (Epoch: 04 June)

Event Time Altitude Azimuth Distance (km) Brightness Sun altitude
Rises 19:02:16 0° 187° (S) 3,186 6.6 -6.7°
Reaches altitude 10° 19:04:40 10° 183° (S) 2,261 5.8 -7.1°
Maximum altitude 19:09:39 55° 106° (ESE) 891 3.5 -7.9°
Drops below altitude 10° 19:14:39 10° 30° (NNE) 2,266 5.9 -8.7°
Sets 19:17:02 0° 26° (NNE) 3,194 6.7 -9.1°
